Location: Unspecified
(0.0000°N, 0.0000°E)
Time: 08:02:55
(UTC+00:00)

Vanguard 1 Rocket - All Passes

Search period start: 08 February 2023 00:00
Search period end: 18 February 2023 00:00
Orbit: 651 x 4224 km, 34.3° (Epoch: 07 February)

Date Brightness Start Highest point End Pass type
(mag) Time Alt. Az. Time Alt. Az. Time Alt. Az.
08 Feb - 06:59:53 10° SW 07:04:18 82° SE 07:09:18 10° NE daylight
08 Feb - 09:27:54 10° NW 09:30:30 13° NNW 09:33:38 10° N daylight
08 Feb - 14:25:39 10° NNW 14:37:14 21° NNE 14:52:53 10° ENE daylight
08 Feb - 16:50:52 10° NW 17:12:08 54° NE 17:36:44 10° ESE daylight
08 Feb - 19:20:20 10° WNW 19:46:14 74° SW 20:07:48 10° SE visible
08 Feb - 21:59:21 10° W 22:19:17 30° SW 22:33:09 10° SSE visible
09 Feb - 05:49:10 10° SSW 05:53:23 29° SSE 05:57:15 10° E visible
09 Feb - 08:14:50 10° W 08:18:25 22° NNW 08:22:56 10° NNE daylight
09 Feb - 13:16:09 10° N 13:21:23 12° NNE 13:27:41 10° NE daylight
09 Feb - 15:38:59 10° NNW 15:56:17 38° NE 16:19:10 10° E daylight
09 Feb - 18:06:03 10° NW 18:30:21 84° NE 18:54:36 10° SE visible
09 Feb - 20:39:52 10° WNW 21:04:04 45° SW 21:22:06 10° SSE visible
09 Feb - 23:28:25 10° SW 23:37:52 15° SSW 23:45:12 10° S visible
10 Feb - 04:39:05 10° S 04:41:50 14° SSE 04:44:13 10° SE visible
10 Feb - 07:02:51 10° WSW 07:07:10 53° NW 07:11:57 10° NE daylight
10 Feb - 14:28:01 10° NNW 14:40:43 24° NNE 14:58:26 10° E daylight
10 Feb - 16:53:06 10° NW 17:14:27 63° NE 17:39:52 10° ESE daylight
10 Feb - 19:23:09 10° WNW 19:48:25 63° SW 20:10:07 10° SE visible
10 Feb - 22:04:20 10° W 22:22:24 25° SSW 22:35:24 10° SSE visible
11 Feb - 05:51:27 10° SW 05:56:20 54° SE 06:00:38 10° ENE visible
11 Feb - 08:19:26 10° NW 08:21:38 13° NNW 08:24:07 10° N daylight
11 Feb - 13:18:26 10° N 13:25:21 14° NNE 13:34:12 10° NE daylight
11 Feb - 15:41:13 10° NNW 15:58:54 45° NE 16:23:03 10° ESE daylight
11 Feb - 18:08:32 10° NW 18:32:29 84° SW 18:57:05 10° SE visible
11 Feb - 20:43:44 10° W 21:06:42 38° SW 21:24:20 10° SSE visible
11 Feb - 23:34:50 10° SW 23:41:52 13° SSW 23:47:38 10° S visible
12 Feb - 04:40:21 10° SSW 04:45:04 23° SSE 04:48:44 10° E visible
12 Feb - 07:06:14 10° W 07:10:06 28° NW 07:14:13 10° NNE daylight
12 Feb - 14:30:16 10° NNW 14:43:47 29° NE 15:03:27 10° E daylight
12 Feb - 16:55:26 10° NW 17:16:37 74° NE 17:42:41 10° ESE daylight
12 Feb - 19:26:17 10° WNW 19:50:45 54° SW 20:12:21 10° SE visible
12 Feb - 22:09:52 10° WSW 22:25:53 21° SSW 22:37:48 10° SSE visible
13 Feb - 03:29:24 10° S 03:32:57 14° SSE 03:35:49 10° SE visible
13 Feb - 05:54:06 10° SW 05:59:12 81° NW 06:03:35 10° NE daylight
13 Feb - 13:20:30 10° N 13:28:58 17° NNE 13:40:32 10° ENE daylight
13 Feb - 15:43:28 10° NW 16:01:16 54° NE 16:26:28 10° ESE daylight
13 Feb - 18:11:14 10° WNW 18:34:39 73° SW 18:59:24 10° SE visible
13 Feb - 20:48:08 10° W 21:09:39 32° SSW 21:26:36 10° SSE visible
13 Feb - 23:40:36 10° SSW 23:46:07 12° SSW 23:50:47 10° S visible
14 Feb - 02:18:52 10° S 02:19:55 10° S 02:20:55 10° SSE visible
14 Feb - 04:42:18 10° SW 04:48:10 39° SSE 04:52:25 10° ENE visible
14 Feb - 07:10:17 10° WNW 07:13:04 16° NNW 07:15:57 10° N daylight
14 Feb - 14:32:27 10° NNW 14:46:31 36° NE 15:07:51 10° E daylight
14 Feb - 16:57:53 10° NW 17:18:46 86° NE 17:45:14 10° SE daylight
14 Feb - 19:29:48 10° WNW 19:53:19 45° SW 20:14:32 10° SE visible
14 Feb - 22:15:44 10° WSW 22:29:47 18° SSW 22:40:29 10° SSE visible
15 Feb - 03:30:29 10° SSW 03:36:23 22° SSE 03:40:32 10° ESE visible
15 Feb - 05:57:07 10° WSW 06:02:01 43° NW 06:06:11 10° NE daylight
15 Feb - 13:22:31 10° N 13:32:13 21° NE 13:46:19 10° ENE daylight
15 Feb - 15:45:47 10° NW 16:03:29 64° NE 16:29:29 10° ESE daylight
15 Feb - 18:14:11 10° WNW 18:36:59 62° SW 19:01:35 10° SE visible
15 Feb - 20:53:01 10° WSW 21:13:01 27° SSW 21:28:59 10° SSE visible
15 Feb - 23:44:52 10° SSW 23:50:31 12° S 23:55:14 10° SSE visible
16 Feb - 02:18:14 10° SSW 02:23:41 15° SSE 02:27:45 10° SE visible
16 Feb - 04:44:38 10° SW 04:51:10 70° SE 04:55:37 10° ENE visible
16 Feb - 12:16:59 10° NNE 12:18:03 10° NNE 12:19:10 10° NE daylight
16 Feb - 14:34:41 10° NNW 14:48:59 43° NE 15:11:42 10° ESE daylight
16 Feb - 17:00:31 10° NW 17:20:57 82° SW 17:47:33 10° SE daylight
16 Feb - 19:33:43 10° W 19:56:10 38° SSW 20:16:45 10° SSE visible
16 Feb - 22:21:31 10° SW 22:34:00 16° SSW 22:43:40 10° SSE visible
17 Feb - 01:04:36 10° SSW 01:09:56 13° S 01:14:09 10° SSE visible
17 Feb - 03:32:11 10° SW 03:39:41 34° SSE 03:44:25 10° E visible
17 Feb - 06:00:37 10° W 06:04:48 24° NW 06:08:24 10° NNE daylight
17 Feb - 13:24:34 10° NNW 13:35:07 26° NE 13:51:26 10° E daylight
17 Feb - 15:48:13 10° NW 16:05:38 75° NE 16:32:10 10° ESE daylight
17 Feb - 18:17:26 10° WNW 18:39:30 53° SW 19:03:42 10° SE visible
17 Feb - 20:58:22 10° WSW 21:16:47 23° SSW 21:31:38 10° SSE visible
